FLOCK 2K-15

Last updated on Wed Feb 14 2018 16:20:54 GMT+0000 (Coordinated Universal Time)

1 42890U 17042BT 18045.21667062 .00006799 00000-0 19823-3 0 9992 2 42890 96.9936 308.1227 0012461 176.7466 183.3862 15.35591337 32762

Satellite not in orbit

FLOCK 2K-15